Date String (YYYY-MM-DD hh:mm:ss) UTC,Instrument flags,Ambient pressure (hPa),Sample flow (lpm),Bypass flow (lpm),Sample temperature (°C),Ambient temperature (°C),ASC tube jacket temperature (°C),LED temperature (°C),Box temperature (°C),Sample RH (%),Span deviation,Mass concentration (μg/m³),Mass concentration (μg/m³),Mass concentration (μg/m³)
DateTimeUTC,F1_M11,P_M11,Q1_M11,Q2_M11,T1_M11,T2_M11,T3_M11,T4_M11,T5_M11,U1_M11,ZSPAN_M11,X2_M11,X0_M11,X1_M11
2023-04-26 05:00:00,,0829.9,5.01,0.00,23.2,21.7,00.0,31.7,24.8,25.4,0000.0,0002.16,0008.76,0001.14
2023-04-26 05:01:00,,0829.8,5.00,0.00,23.2,21.7,00.0,31.6,24.8,25.4,0000.0,0002.12,0008.85,0001.13
2023-04-26 05:02:00,,0829.8,5.01,0.00,23.2,21.7,00.0,31.6,24.8,25.4,0000.0,0002.14,0009.48,0001.13
2023-04-26 05:03:00,,0829.8,5.00,0.00,23.2,21.7,00.0,31.6,24.8,25.4,0000.0,0002.17,0009.58,0001.12
2023-04-26 05:04:00,,0829.8,4.99,0.00,23.2,21.7,00.0,31.6,24.8,25.4,0000.0,0002.17,0009.54,0001.11
2023-04-26 05:05:00,,0829.9,5.00,0.00,23.2,21.7,00.0,31.6,24.8,25.3,0000.0,0002.12,0010.04,0001.08
2023-04-26 05:06:00,,0829.8,4.99,0.00,23.2,21.7,00.0,31.6,24.8,25.3,0000.0,0002.10,0010.21,0001.06
2023-04-26 05:07:00,,0829.8,4.99,0.00,23.2,21.7,00.0,31.6,24.8,25.3,0000.0,0001.94,0009.96,0001.02
2023-04-26 05:08:00,,0829.8,5.01,0.00,23.2,21.6,00.0,31.6,24.8,25.2,0000.0,0001.85,0009.43,0000.98
2023-04-26 05:09:00,,0829.8,5.01,0.00,23.2,21.6,00.0,31.6,24.8,25.1,0000.0,0001.74,0009.28,0000.93
2023-04-26 05:10:00,,0829.8,5.01,0.00,23.2,21.6,00.0,31.6,24.8,25.1,0000.0,0001.69,0008.39,0000.88
2023-04-26 05:11:00,,0829.9,5.00,0.00,23.1,21.6,00.0,31.6,24.7,25.1,0000.0,0001.61,0008.16,0000.83
2023-04-26 05:12:00,,0829.8,5.00,0.00,23.1,21.6,00.0,31.6,24.7,25.1,0000.0,0001.52,0008.43,0000.78
2023-04-26 05:13:00,,0829.8,4.99,0.00,23.1,21.6,00.0,31.6,24.7,25.1,0000.0,0001.41,0007.77,0000.72
2023-04-26 05:14:00,,0829.9,5.00,0.00,23.1,21.6,00.0,31.6,24.7,25.1,0000.0,0001.33,0007.60,0000.67
2023-04-26 05:15:00,,0829.9,4.99,0.00,23.1,21.6,00.0,31.6,24.7,25.2,0000.0,0001.19,0007.41,0000.61
2023-04-26 05:16:00,,0829.9,4.99,0.00,23.1,21.6,00.0,31.6,24.7,25.2,0000.0,0001.11,0006.14,0000.56
2023-04-26 05:17:00,,0829.9,5.00,0.00,23.1,21.6,00.0,31.6,24.7,25.0,0000.0,0001.04,0005.34,0000.51
2023-04-26 05:18:00,,0829.9,5.01,0.00,23.1,21.6,00.0,31.6,24.7,24.9,0000.0,0001.00,0004.19,0000.47
2023-04-26 05:19:00,,0829.9,5.01,0.00,23.1,21.5,00.0,31.6,24.7,25.1,0000.0,0000.90,0003.47,0000.43
2023-04-26 05:20:00,,0829.9,5.00,0.00,23.1,21.5,00.0,31.5,24.7,25.1,0000.0,0000.81,0003.09,0000.40
2023-04-26 05:21:00,,0829.9,4.99,0.00,23.1,21.4,00.0,31.5,24.6,25.1,0000.0,0000.74,0002.65,0000.38
2023-04-26 05:22:00,,0829.9,5.00,0.00,23.1,21.4,00.0,31.5,24.6,25.1,0000.0,0000.74,0002.42,0000.37
2023-04-26 05:23:00,,0829.9,5.00,0.00,23.1,21.4,00.0,31.5,24.6,25.1,0000.0,0000.74,0001.68,0000.36
2023-04-26 05:24:00,,0829.9,5.00,0.00,23.0,21.4,00.0,31.5,24.6,25.1,0000.0,0000.75,0001.61,0000.36
2023-04-26 05:25:00,,0829.9,5.00,0.00,23.0,21.4,00.0,31.5,24.6,25.2,0000.0,0000.72,0001.50,0000.34
2023-04-26 05:26:00,,0830.0,5.01,0.00,23.0,21.4,00.0,31.5,24.6,25.2,0000.0,0000.73,0001.54,0000.34
2023-04-26 05:27:00,,0830.0,5.00,0.00,23.0,21.4,00.0,31.5,24.6,25.2,0000.0,0000.74,0001.59,0000.33
2023-04-26 05:28:00,,0830.0,5.00,0.00,23.0,21.4,00.0,31.5,24.6,25.1,0000.0,0000.72,0001.60,0000.32
2023-04-26 05:29:00,,0830.0,4.99,0.00,23.0,21.4,00.0,31.5,24.6,25.1,0000.0,0000.66,0001.45,0000.32
2023-04-26 05:30:00,,0830.0,5.00,0.00,23.0,21.4,00.0,31.5,24.6,25.2,0000.0,0000.63,0001.38,0000.31
2023-04-26 05:31:00,,0830.1,5.00,0.00,23.0,21.4,00.0,31.5,24.6,25.1,0000.0,0000.63,0001.29,0000.31
2023-04-26 05:32:00,,0830.0,5.00,0.00,23.0,21.5,00.0,31.5,24.6,25.1,0000.0,0000.62,0001.26,0000.31
2023-04-26 05:33:00,,0830.0,4.99,0.00,23.0,21.5,00.0,31.4,24.6,25.1,0000.0,0000.59,0001.19,0000.31
2023-04-26 05:34:00,,0830.0,5.00,0.00,23.0,21.4,00.0,31.4,24.6,25.1,0000.0,0000.57,0001.13,0000.31
2023-04-26 05:35:00,,0830.0,5.00,0.00,23.0,21.4,00.0,31.4,24.6,25.1,0000.0,0000.57,0001.13,0000.31
2023-04-26 05:36:00,,0830.1,5.00,0.00,23.0,21.5,00.0,31.4,24.6,25.2,0000.0,0000.57,0001.14,0000.32
2023-04-26 05:37:00,,0830.0,5.00,0.00,23.0,21.5,00.0,31.4,24.6,25.2,0000.0,0000.59,0001.18,0000.32
2023-04-26 05:38:00,,0830.1,5.01,0.00,23.0,21.4,00.0,31.4,24.6,25.2,0000.0,0000.59,0001.25,0000.32
2023-04-26 05:39:00,,0830.1,4.99,0.00,23.0,21.5,00.0,31.4,24.6,25.2,0000.0,0000.57,0001.18,0000.33
2023-04-26 05:40:00,,0830.1,5.00,0.00,23.0,21.5,00.0,31.4,24.6,25.3,0000.0,0000.60,0001.24,0000.33
2023-04-26 05:41:00,,0830.0,5.00,0.00,23.0,21.5,00.0,31.4,24.6,25.4,0000.0,0000.61,0001.41,0000.33
2023-04-26 05:42:00,,0830.1,5.00,0.00,23.0,21.5,00.0,31.4,24.6,25.4,0000.0,0000.63,0002.45,0000.33
2023-04-26 05:43:00,,0830.0,5.00,0.00,23.0,21.5,00.0,31.4,24.6,25.4,0000.0,0000.64,0002.46,0000.34
2023-04-26 05:44:00,,0830.0,5.01,0.00,23.0,21.5,00.0,31.4,24.6,25.5,0000.0,0000.66,0002.51,0000.34
2023-04-26 05:45:00,,0830.0,5.00,0.00,23.0,21.5,00.0,31.4,24.6,25.5,0000.0,0000.67,0002.53,0000.34
2023-04-26 05:46:00,,0830.1,5.00,0.00,23.0,21.5,00.0,31.4,24.6,25.5,0000.0,0000.67,0002.52,0000.35
2023-04-26 05:47:00,,0830.1,5.00,0.00,23.0,21.5,00.0,31.4,24.6,25.7,0000.0,0000.66,0002.52,0000.35
2023-04-26 05:48:00,,0830.1,4.99,0.00,23.0,21.5,00.0,31.4,24.6,25.7,0000.0,0000.70,0002.63,0000.36
2023-04-26 05:49:00,,0830.1,4.99,0.00,23.0,21.5,00.0,31.4,24.6,25.7,0000.0,0000.75,0002.75,0000.38
2023-04-26 05:50:00,,0830.1,5.00,0.00,23.0,21.5,00.0,31.4,24.6,25.7,0000.0,0000.80,0002.85,0000.40
2023-04-26 05:51:00,,0830.1,5.00,0.00,23.0,21.5,00.0,31.4,24.6,25.7,0000.0,0000.86,0002.99,0000.41
2023-04-26 05:52:00,,0830.1,5.00,0.00,23.0,21.5,00.0,31.4,24.6,25.8,0000.0,0000.91,0003.08,0000.44
2023-04-26 05:53:00,,0830.1,5.01,0.00,23.0,21.5,00.0,31.4,24.6,25.9,0000.0,0001.03,0002.68,0000.47
2023-04-26 05:54:00,,0830.1,5.00,0.00,23.0,21.5,00.0,31.4,24.6,25.9,0000.0,0001.06,0002.38,0000.48
2023-04-26 05:55:00,,0830.1,5.00,0.00,23.0,21.5,00.0,31.4,24.6,25.9,0000.0,0001.09,0002.50,0000.50
2023-04-26 05:56:00,,0830.1,4.99,0.00,23.0,21.5,00.0,31.4,24.6,25.9,0000.0,0001.09,0002.50,0000.51
2023-04-26 05:57:00,,0830.1,4.99,0.00,23.0,21.5,00.0,31.4,24.6,25.9,0000.0,0001.12,0002.56,0000.51
2023-04-26 05:58:00,,0830.2,4.99,0.00,23.0,21.5,00.0,31.4,24.6,25.9,0000.0,0001.12,0002.55,0000.51
2023-04-26 05:59:00,,0830.2,5.00,0.00,23.0,21.5,00.0,31.4,24.6,26.0,0000.0,0001.09,0002.51,0000.51
